Overview Statistics Trail Chart Weather Telemetry Raw packets
 

This is the latest recevied weather packets stored in our database for station/object KO4DYK. If no packets are shown the sender has not sent any weather packets the latest 10 day(s).

<< 5 6 7 8 9 10 11 >>
Time Temp. Humidity Pressure Rain* Wind** Luminosity Snow
1788619095 31.11° C 78% 1016.3 hPa 0 mm - 358 W/m² -
1788618790 31.11° C 79% 1016.3 hPa 0 mm - 353 W/m² -
1788618490 31.11° C 79% 1016.3 hPa 0 mm - 343 W/m² -
1788618189 30.56° C 80% 1016.3 hPa 0 mm - 309 W/m² -
1788617886 30° C 82% 1016.2 hPa 0 mm - 301 W/m² -
1788617581 30° C 83% 1016.4 hPa 0 mm - 304 W/m² -
1788617297 29.44° C 85% 1016.1 hPa 0 mm - 283 W/m² -
1788616976 29.44° C 85% 1016.2 hPa 0 mm - 276 W/m² -
1788616675 28.89° C 85% 1016 hPa 0 mm - 244 W/m² -
1788616371 29.44° C 86% 1016.1 hPa 0 mm - 229 W/m² -
1788616071 28.89° C 88% 1016.2 hPa 0 mm - 190 W/m² -
1788615764 28.89° C 90% 1016.3 hPa 0 mm - 123 W/m² -
1788615459 27.78° C 93% 1016.3 hPa 0 mm - 204 W/m² -
1788615155 27.22° C 92% 1016.1 hPa 0 mm - 172 W/m² -
1788614853 26.67° C 95% 1016.3 hPa 0 mm - 170 W/m² -
1788614549 26.11° C 99% 1016.4 hPa 0 mm - 81 W/m² -
1788614245 25.56° C 99% 1016.4 hPa 0 mm - 89 W/m² -
1788613940 25° C 99% 1016.4 hPa 0 mm - 70 W/m² -
1788613640 25° C 99% 1016.5 hPa 0 mm - 69 W/m² -
1788613339 25° C 99% 1016.3 hPa 0 mm - 61 W/m² -
1788613034 24.44° C 99% 1016.2 hPa 0 mm - 57 W/m² -
1788612729 23.89° C 99% 1016.1 hPa 0 mm - 52 W/m² -
1788612433 23.89° C 99% 1016.2 hPa 0 mm - 49 W/m² -
1788612122 23.33° C 99% 1016.3 hPa 0 mm - 46 W/m² -
1788611822 23.33° C 99% 1016.3 hPa 0 mm - 43 W/m² -

* Rain latest hour (hover to see other rain measurements)
** Current wind speed in m/s (hover to see current wind gust speed)